TimeCST,TemperatureF,Dew PointF,Humidity,Sea Level PressureIn,VisibilityMPH,Wind Direction,Wind SpeedMPH,Gust SpeedMPH,PrecipitationIn,Events,Conditions,WindDirDegrees,DateUTC
12:15 AM,14.0,-0.0,54,30.38,10.0,East,10.4,-,N/A,,Overcast,80,2013-12-08 06:15:00
12:35 AM,14.0,-0.0,54,30.36,10.0,East,11.5,17.3,N/A,,Overcast,90,2013-12-08 06:35:00
12:55 AM,14.0,0.1,54,30.35,10.0,East,10.4,-,N/A,,Overcast,90,2013-12-08 06:55:00
1:15 AM,14.0,0.5,55,30.34,10.0,East,12.7,18.4,N/A,Snow,Light Snow,100,2013-12-08 07:15:00
1:35 AM,13.8,3.4,63,30.32,3.0,East,13.8,18.4,N/A,Snow,Light Snow,90,2013-12-08 07:35:00
1:55 AM,13.6,3.6,64,30.30,5.0,East,15.0,18.4,N/A,Snow,Light Snow,100,2013-12-08 07:55:00
2:15 AM,13.8,3.6,64,30.29,4.0,East,12.7,-,N/A,Snow,Light Snow,100,2013-12-08 08:15:00
2:35 AM,13.8,3.7,64,30.28,7.0,East,15.0,21.9,N/A,Snow,Light Snow,100,2013-12-08 08:35:00
2:55 AM,14.0,3.2,62,30.26,10.0,East,17.3,-,N/A,Snow,Light Snow,100,2013-12-08 08:55:00
3:15 AM,14.0,2.5,60,30.26,10.0,ESE,11.5,-,N/A,,Overcast,110,2013-12-08 09:15:00
3:35 AM,14.4,3.2,61,30.25,7.0,ESE,13.8,18.4,N/A,Snow,Light Snow,110,2013-12-08 09:35:00
3:55 AM,14.0,4.1,65,30.23,5.0,ESE,12.7,-,N/A,Snow,Light Snow,110,2013-12-08 09:55:00
4:15 AM,14.0,5.2,68,30.22,5.0,ESE,15.0,-,N/A,Snow,Light Snow,110,2013-12-08 10:15:00
4:35 AM,14.0,5.5,69,30.21,5.0,ESE,13.8,19.6,N/A,Snow,Light Snow,110,2013-12-08 10:35:00
4:55 AM,14.0,5.9,70,30.19,4.0,ESE,12.7,-,N/A,Snow,Light Snow,110,2013-12-08 10:55:00
5:15 AM,13.6,7.3,76,30.18,1.5,ESE,13.8,18.4,N/A,Snow,Light Snow,110,2013-12-08 11:15:00
5:35 AM,13.5,8.2,80,30.17,1.8,ESE,12.7,-,N/A,Snow,Light Snow,110,2013-12-08 11:35:00
5:55 AM,13.5,9.3,84,30.16,1.2,East,11.5,-,N/A,Snow,Snow,100,2013-12-08 11:55:00
6:15 AM,13.1,9.5,86,30.16,1.2,ESE,11.5,-,N/A,Snow,Light Snow,110,2013-12-08 12:15:00
6:35 AM,13.1,9.5,86,30.14,1.8,East,11.5,-,N/A,Snow,Light Snow,100,2013-12-08 12:35:00
6:55 AM,13.1,9.9,87,30.14,2.0,East,10.4,-,N/A,Snow,Light Snow,100,2013-12-08 12:55:00
7:15 AM,13.1,10.2,88,30.13,1.5,East,10.4,-,N/A,Snow,Light Snow,100,2013-12-08 13:15:00
7:35 AM,13.1,10.2,88,30.14,1.8,East,11.5,-,N/A,Snow,Light Snow,100,2013-12-08 13:35:00
7:55 AM,13.3,10.4,88,30.13,0.8,East,9.2,-,N/A,Snow,Light Snow,100,2013-12-08 13:55:00
8:15 AM,13.5,10.4,88,30.13,0.8,ESE,9.2,-,N/A,Snow,Light Snow,110,2013-12-08 14:15:00
8:35 AM,13.6,10.8,88,30.12,0.8,East,8.1,-,N/A,Snow,Light Snow,100,2013-12-08 14:35:00
8:55 AM,14.0,11.1,88,30.13,0.8,East,8.1,-,N/A,Snow,Light Snow,100,2013-12-08 14:55:00
9:15 AM,14.4,11.3,88,30.12,1.0,East,5.8,-,N/A,Snow,Light Snow,100,2013-12-08 15:15:00
9:35 AM,14.9,11.7,87,30.11,1.5,East,8.1,-,N/A,Snow,Light Snow,100,2013-12-08 15:35:00
9:55 AM,15.3,11.8,86,30.11,1.5,East,5.8,-,N/A,Snow,Light Snow,100,2013-12-08 15:55:00
10:15 AM,16.5,12.7,85,30.11,1.5,East,8.1,-,N/A,Snow,Light Snow,100,2013-12-08 16:15:00
10:35 AM,16.3,12.2,84,30.11,2.0,East,8.1,-,N/A,Snow,Light Snow,100,2013-12-08 16:35:00
10:55 AM,17.8,13.1,82,30.09,1.8,ESE,8.1,-,N/A,Snow,Light Snow,120,2013-12-08 16:55:00
11:15 AM,17.2,12.0,80,30.08,3.0,ESE,6.9,-,N/A,Snow,Light Snow,110,2013-12-08 17:15:00
11:35 AM,18.1,12.9,80,30.07,1.8,ESE,4.6,-,N/A,Snow,Light Snow,120,2013-12-08 17:35:00
11:55 AM,18.9,13.8,81,30.06,1.2,East,5.8,-,N/A,Snow,Light Snow,100,2013-12-08 17:55:00
12:15 PM,19.0,14.2,81,30.05,1.5,East,4.6,-,N/A,Snow,Light Snow,100,2013-12-08 18:15:00
12:35 PM,18.5,14.0,83,30.04,1.0,East,3.5,-,N/A,Snow,Light Snow,90,2013-12-08 18:35:00
12:55 PM,18.7,14.2,83,30.03,1.5,Calm,Calm,-,N/A,Snow,Light Snow,0,2013-12-08 18:55:00
1:15 PM,18.9,14.4,83,30.02,1.8,East,3.5,-,N/A,Snow,Light Snow,90,2013-12-08 19:15:00
1:35 PM,19.0,14.7,83,30.02,1.8,Calm,Calm,-,N/A,Snow,Light Snow,0,2013-12-08 19:35:00
1:55 PM,18.5,14.0,83,30.00,2.5,Calm,Calm,-,N/A,Snow,Light Snow,0,2013-12-08 19:55:00
2:15 PM,18.5,14.0,83,29.99,3.0,Calm,Calm,-,N/A,Snow,Light Snow,0,2013-12-08 20:15:00
2:35 PM,18.3,12.9,79,30.00,1.8,Calm,Calm,-,N/A,Snow,Light Snow,0,2013-12-08 20:35:00
2:55 PM,18.5,13.1,79,29.99,1.5,Calm,Calm,-,N/A,Snow,Light Snow,0,2013-12-08 20:55:00
3:15 PM,18.5,13.8,82,29.99,2.0,Calm,Calm,-,N/A,Snow,Light Snow,0,2013-12-08 21:15:00
3:35 PM,18.1,13.5,82,29.99,2.5,Calm,Calm,-,N/A,Snow,Light Snow,0,2013-12-08 21:35:00
3:55 PM,18.5,14.0,83,29.99,3.0,Calm,Calm,-,N/A,Snow,Light Snow,0,2013-12-08 21:55:00
4:15 PM,18.0,14.0,84,30.00,2.5,Calm,Calm,-,N/A,Snow,Light Snow,0,2013-12-08 22:15:00
4:35 PM,17.6,14.0,86,30.00,2.5,NW,3.5,-,N/A,Snow,Light Snow,310,2013-12-08 22:35:00
4:55 PM,17.4,14.4,88,30.01,1.5,WNW,3.5,-,N/A,Snow,Light Snow,300,2013-12-08 22:55:00
5:15 PM,17.2,14.4,88,30.02,3.0,WNW,3.5,-,N/A,Snow,Light Snow,300,2013-12-08 23:15:00
5:35 PM,17.2,14.5,89,30.03,3.0,WNW,3.5,-,N/A,Snow,Light Snow,300,2013-12-08 23:35:00
5:55 PM,17.1,14.5,90,30.04,2.0,Calm,Calm,-,N/A,Snow,Light Snow,0,2013-12-08 23:55:00
6:15 PM,17.1,14.5,90,30.05,2.0,West,3.5,-,N/A,Snow,Light Snow,280,2013-12-09 00:15:00
6:35 PM,17.1,14.5,90,30.06,1.5,WNW,5.8,-,N/A,Snow,Light Snow,290,2013-12-09 00:35:00
6:55 PM,16.7,14.0,89,30.07,1.8,WNW,8.1,-,N/A,Snow,Light Snow,290,2013-12-09 00:55:00
7:15 PM,16.7,14.2,90,30.08,1.8,WNW,6.9,-,N/A,Snow,Light Snow,290,2013-12-09 01:15:00
7:35 PM,16.5,13.8,89,30.08,2.5,NW,10.4,-,N/A,Snow,Light Snow,310,2013-12-09 01:35:00
7:55 PM,16.3,13.3,88,30.09,2.0,NW,8.1,-,N/A,Snow,Light Snow,310,2013-12-09 01:55:00
8:15 PM,15.8,13.1,89,30.09,2.5,NW,10.4,-,N/A,Snow,Light Snow,310,2013-12-09 02:15:00
8:35 PM,15.8,12.9,88,30.09,2.5,NW,9.2,-,N/A,Snow,Light Snow,310,2013-12-09 02:35:00
8:55 PM,15.4,12.7,89,30.09,3.0,WNW,6.9,-,N/A,Snow,Light Snow,300,2013-12-09 02:55:00
9:15 PM,13.8,10.9,88,30.09,7.0,WNW,9.2,-,N/A,Snow,Light Snow,300,2013-12-09 03:15:00
9:35 PM,11.3,8.6,89,30.09,10.0,WNW,6.9,-,N/A,,Clear,290,2013-12-09 03:35:00
9:55 PM,10.4,7.7,89,30.11,10.0,WNW,6.9,-,N/A,,Clear,290,2013-12-09 03:55:00
10:15 PM,9.3,6.8,89,30.12,7.0,West,5.8,-,N/A,,Clear,280,2013-12-09 04:15:00
10:35 PM,8.4,5.7,89,30.12,4.0,WNW,6.9,-,N/A,Snow,Light Snow,290,2013-12-09 04:35:00
10:55 PM,9.0,6.4,89,30.12,10.0,WNW,5.8,-,N/A,,Clear,300,2013-12-09 04:55:00
11:15 PM,9.9,7.2,89,30.13,10.0,West,5.8,-,N/A,,Clear,280,2013-12-09 05:15:00
11:35 PM,9.3,6.8,89,30.13,10.0,WNW,8.1,-,N/A,,Clear,290,2013-12-09 05:35:00
11:55 PM,8.8,5.9,88,30.14,10.0,West,5.8,-,N/A,,Clear,280,2013-12-09 05:55:00